SCP
0 0 0 0 0 0 0 0 0 0 0 0 0 0 0 0 0 0 0 0 0 0 0 0 0 0 0 0 0 0 0 0 0 0 0 0 0 0
0 0 0 0 0 0 0 0 0 0 0 0 0 0 0 0 0 0 0 0 0 0 0 0 0 0 0 0 0 0 0 0 0 0 0 0 0 0
0 0 0 0 0 0 0 0 0 0 0 0 0 0 0 0 0 0 0 0 0 0 0 0 0 0 0 0 0 0 0 0 0 0 0 0 0 0
0 0 0 0 0 0 0 0 0 0 0 0 0 0 0 0 0 0 0 0 0 0 0 0 0 0 0 0 0 0 0 0 0 0 0 0 0 0
0 0 0 0 0 0 0 0 0 0 0 0 0 0 0 0 0 0 0 0 0 0 0 0 0 0 0 0 0 0 0 0 0 0 0 0 0 0
0 0 0 0 0 0 0 0 0 0 0 0 0 0 0 0 0 0 0 0 0 0 0 0 0 0 0 0 0 0 0 0 0 0 0 0 0 0
0 0 0 0 0 0 0 0 0 0 0 0 0 0 0 0 0 0 0 0 0 0 0 0 0 0 0 0 0 0 0 0 0 0 0 0 0 0
0 0 0 0 0 0 0 0 0 0 0 0 0 0 0 0 0 0 0 0 0 0 0 0 0 0 0 0 0 0 0 0 0 0 0 0 0 0
0 0 0 0 0 0 0 0 0 0 0 0 0 0 0 0 0 0 0 0 0 0 0 0 0 0 0 0 0 0 0 0 0 0 0 0 0 0
0 0 0 0 0 0 0 0 0 0 0 0 0 0 0 0 0 0 0 0 0 0 0 0 0 0 0 0 0 0 -0 -0 0 0 0 0 0 0
0 0 0 0 0 0 0 0 0 0 0 0 0 0 0 0 0 0 0 0 0 0 0 0 0 0 0 0 0 0 -0 -0 -0 -0 0 0 0 0
0 0 0 0 0 0 0 0 0 0 0 0 0 0 0 0 0 0 0 0 0 0 0 0 0 0 0 0 0 0 0 0 0 0 0 0 0 0
0 0 0 0 0 0 0 -0 -0 0 -0 -0 -0 -0 -0 -0 0 0 0 0 0 0 0 0 0 0 0 0 0 0 0 0 0 0 0 0 0 0
0 -0 -0 0 0 0 -0 0 0 -0 -0 -0 -0 -0 -0 -0 -0 -0 0 0 0 0 0 0 0 0 0 0 0 0 0 0 0 0 0 0 0 0
-0 0 0 0 0 -0 0 0 0 -0 -0 -0 -0 -0 -0 -0 -0 0 0 0 0 0 0 0 0 0 0 0 0 0 0 0 0 0 0 0 0 0
0 -0 -0 -0 -0 -0 -0 -0 -0 -0 -0 -0 -0 -0 -0 -0 -0 -0 -0 0 0 0 0 0 0 0 0 0 0 0 0 0 0 0 0 0 0 0
-0 -0 -0 -0 -0 -0 -0 -0 -0 -0 -0 -0 -0 -0 -0 -0 -0 -0 0 0 0 0 0 0 0 0 0 0 0 0 0 0 0 0 0 0 0 0
-0 -0 -0 -0 -0 -0 -0 -0 -0 -0 0 0 0 0 0 0 0 0 0 0 0 0 0 0 0 0 0 0 0 0 0 0 0 0 0 0 0 0
-0 -0 -0 -0 -0 0 0 0 0 0 0 0 0 0 0 0 0 0 0 0 0 0 0 0 0 0 0 0 0 0 0 0 0 0 0 0 0 -0
-0 -0 0 0 0 0 0 0 0 0 0 0 0 0 0 0 0 0 0 0 0 0 0 0 0 0 0 0 0 0 -0 0 0 0 0 0 -0 -0
0 0 0 0 0 0 0 0 0 0 0 0 0 0 0 0 0 0 0 0 0 0 0 0 0 0 0 0 0 0 0 -0 -0 -0 -0 -0 -0 -0
0 0 0 0 0 0 0 0 0 0 0 0 0 0 0 0 0 0 0 0 0 0 0 0 0 -0 -0 0 -0 -0 0 0 -0 -0 -0 -0 -0 0
0 0 0 0 0 0 0 0 0 0 0 0 0 0 0 0 0 0 0 0 0 0 -0 0 0 0 0 0 0 0 -0 -0 0 -0 -0 -0 -0 -0
Wind_Speed_500mb
72 68 59 56 51 47 42 34 40 38 58 55 50 47 45 50 53 58 62 64 66 70 74 77 79 82 84 85 85 84 85 84 77 75 75 75 74 75
60 56 52 47 40 39 39 37 40 42 54 59 64 60 60 63 65 71 74 74 77 80 83 87 89 89 91 92 91 91 90 86 78 78 78 77 78 79
33 33 33 31 32 47 63 52 28 43 60 67 73 70 74 71 71 75 78 82 86 87 90 93 94 96 98 99 99 98 96 91 83 80 79 80 81 80
28 40 47 34 43 31 26 32 39 47 62 78 84 82 83 86 88 86 87 89 92 95 94 94 95 96 97 101 100 100 100 96 88 83 82 81 81 82
12 14 26 28 23 28 34 42 45 52 63 80 99 95 95 88 90 93 94 94 95 94 92 91 91 93 96 98 100 102 102 99 88 84 84 83 82 84
21 21 22 27 31 40 47 54 61 68 71 72 84 91 89 92 93 96 104 99 105 104 107 106 103 100 94 90 91 95 100 97 91 89 86 85 87 89
19 23 27 33 37 40 44 47 50 57 63 72 83 90 93 90 84 88 97 104 111 103 107 108 101 100 99 96 95 95 96 94 93 93 87 87 87 86
18 19 23 28 33 37 39 41 43 49 56 62 71 78 86 81 84 86 91 97 109 91 81 110 103 118 121 116 102 94 93 93 93 91 86 83 82 82
28 28 29 33 38 44 46 49 50 50 46 50 63 71 87 89 95 103 99 98 110 108 98 121 98 106 108 111 106 97 89 85 82 81 82 81 79 77
35 38 40 43 47 53 57 59 59 59 57 59 62 71 74 74 78 88 101 107 115 106 86 103 102 107 107 112 109 94 85 76 78 78 74 74 74 73
45 47 50 53 56 61 67 70 70 71 71 73 77 79 81 83 80 81 83 80 85 85 67 87 105 105 103 108 99 84 78 71 71 70 68 69 70 72
51 54 56 60 63 66 69 71 74 78 85 88 87 86 85 85 82 70 75 89 103 125 92 92 101 90 93 95 82 79 78 69 60 62 61 65 69 73
58 60 62 65 68 70 70 68 66 77 84 87 92 95 95 93 88 82 75 72 87 101 108 89 103 104 93 90 95 100 74 70 67 70 74 76 76 73
63 67 68 71 73 73 73 72 73 80 86 92 95 98 98 96 92 87 80 76 71 74 77 67 90 90 83 81 73 70 75 77 78 82 81 74 69 81
66 68 70 73 73 73 73 74 78 83 86 89 92 94 93 94 94 90 80 67 62 55 62 68 68 74 72 70 71 76 78 85 82 71 71 81 86 89
72 71 72 72 72 74 77 79 81 82 81 82 85 87 90 93 93 84 81 74 71 65 77 68 71 66 65 66 69 75 76 75 79 81 81 87 88 92
78 77 81 83 85 84 83 82 82 82 82 83 85 88 90 91 93 84 76 75 69 73 84 75 69 66 64 63 70 69 64 66 71 76 77 91 94 88
82 88 87 85 84 84 85 86 85 84 83 84 87 89 93 95 94 89 81 78 72 82 72 77 75 75 70 64 46 46 66 69 72 80 80 86 101 92
93 90 84 81 81 82 83 85 86 82 79 80 83 86 92 92 89 88 85 74 82 75 74 73 69 62 66 73 80 57 60 78 77 80 74 82 97 100
90 88 85 81 79 79 80 80 80 78 75 78 81 84 88 88 86 85 81 82 82 80 76 67 62 59 59 64 83 88 65 73 71 82 87 90 96 96
88 82 75 71 70 71 72 73 74 73 71 77 80 84 85 82 80 79 76 73 69 67 68 67 61 57 60 64 71 84 81 71 68 73 80 84 89 96
81 78 72 67 67 69 69 69 70 66 67 74 78 82 81 75 73 70 66 64 64 63 66 64 58 57 55 61 70 78 88 84 70 58 51 47 61 49
75 72 67 62 61 62 61 62 59 58 64 72 77 80 74 67 61 58 60 61 63 65 63 65 60 54 60 66 68 76 73 73 75 69 54 43 39 55
Wind_Direction_500mb
247 245 248 249 248 252 252 251 271 289 292 282 285 285 289 289 287 286 286 285 284 283 284 284 284 283 284 284 285 284 283 279 275 272 272 273 274 274
242 247 245 247 244 245 251 278 291 292 279 287 288 291 291 289 289 287 287 286 283 284 285 285 283 284 284 284 283 283 283 278 272 271 273 273 274 274
238 239 239 242 256 268 267 268 282 290 288 292 292 296 292 290 289 289 288 287 286 285 284 283 284 284 284 284 283 283 281 278 272 271 270 272 273 273
243 239 248 240 250 273 292 304 295 294 295 294 293 293 292 294 295 293 292 289 288 286 285 284 283 282 282 281 281 280 280 278 273 267 267 270 270 269
222 250 266 274 284 288 285 286 289 285 284 286 289 293 296 297 297 295 295 292 290 291 290 288 286 285 283 282 280 279 279 278 272 267 268 270 270 272
268 286 311 318 306 287 284 284 286 287 288 291 293 298 302 305 303 302 301 301 302 301 299 296 294 290 285 281 278 275 274 273 270 268 270 269 271 275
323 312 307 301 295 293 297 300 301 303 303 303 303 304 306 309 307 308 305 306 302 301 300 298 298 294 289 288 285 284 282 278 272 270 267 267 271 270
347 338 331 323 319 317 314 312 312 315 312 312 312 309 309 309 309 307 304 303 300 302 298 295 293 293 295 293 293 291 287 280 276 271 268 270 269 269
1 360 356 348 338 331 324 323 322 323 320 315 312 313 311 314 312 311 305 299 295 296 294 291 289 286 289 294 296 295 292 283 270 267 268 267 267 270
17 10 3 358 355 347 342 337 335 332 326 318 309 303 301 303 302 300 298 297 294 294 294 289 292 287 290 291 292 291 287 271 266 266 268 268 270 273
20 13 7 1 357 348 343 339 335 329 324 320 316 313 311 309 308 300 295 308 307 303 307 287 289 287 292 291 291 289 283 268 264 263 264 268 267 271
17 10 5 358 352 346 341 337 331 329 330 325 322 321 321 321 321 320 310 307 304 300 297 302 296 302 286 287 287 289 284 274 263 266 265 275 275 275
8 1 356 350 345 343 340 339 337 331 329 328 328 329 330 331 330 325 320 314 308 302 299 304 301 300 294 284 285 286 283 285 281 281 284 287 281 281
360 355 350 344 341 340 339 339 338 335 337 337 337 338 337 336 334 333 329 321 314 307 312 314 300 300 297 294 292 290 292 293 294 296 296 291 289 290
354 349 342 339 339 338 340 340 340 341 342 341 340 339 338 337 336 336 333 331 328 329 332 324 322 317 307 298 296 298 299 296 302 297 293 296 292 291
349 344 339 338 339 340 342 346 349 350 348 345 341 339 339 339 338 339 337 340 333 332 326 327 325 324 315 307 304 298 297 300 299 299 301 295 294 292
345 341 342 346 346 348 349 350 352 352 350 347 344 342 340 338 337 338 339 338 334 321 325 330 326 320 314 309 302 301 307 301 303 303 305 301 297 299
345 346 347 346 345 345 346 346 349 349 347 344 344 345 343 341 338 338 337 335 326 323 323 328 328 323 319 313 316 314 310 309 310 308 305 302 300 304
343 342 340 340 341 341 342 343 343 345 343 344 345 347 346 343 340 338 336 328 327 326 327 329 328 326 323 317 323 324 314 314 314 307 305 301 301 305
338 337 337 336 336 336 337 339 340 341 342 345 347 348 348 345 341 337 335 331 332 331 331 334 335 331 324 316 313 320 326 316 317 312 311 309 305 307
333 331 332 331 331 331 334 336 339 340 344 345 347 348 348 344 343 339 336 336 336 336 334 336 337 331 323 319 315 321 326 328 320 309 307 302 306 309
329 327 329 329 330 332 333 335 337 342 345 346 347 347 344 341 341 340 341 339 340 339 336 336 338 337 335 328 323 324 326 328 328 324 323 299 286 286
325 324 324 326 328 330 332 333 337 344 345 345 347 346 341 341 345 346 345 344 342 340 340 341 345 344 341 338 333 332 333 338 339 342 348 347 312 288
Wind_Speed_850mb
72 68 59 56 51 47 42 34 40 38 58 55 50 47 45 50 53 58 62 64 66 70 74 77 79 82 84 85 85 84 85 84 77 75 75 75 74 75
60 56 52 47 40 39 39 37 40 42 54 59 64 60 60 63 65 71 74 74 77 80 83 87 89 89 91 92 91 91 90 86 78 78 78 77 78 79
33 33 33 31 32 47 63 52 28 43 60 67 73 70 74 71 71 75 78 82 86 87 90 93 94 96 98 99 99 98 96 91 83 80 79 80 81 80
28 40 47 34 43 31 26 32 39 47 62 78 84 82 83 86 88 86 87 89 92 95 94 94 95 96 97 101 100 100 100 96 88 83 82 81 81 82
12 14 26 28 23 28 34 42 45 52 63 80 99 95 95 88 90 93 94 94 95 94 92 91 91 93 96 98 100 102 102 99 88 84 84 83 82 84
21 21 22 27 31 40 47 54 61 68 71 72 84 91 89 92 93 96 104 99 105 104 107 106 103 100 94 90 91 95 100 97 91 89 86 85 87 89
19 23 27 33 37 40 44 47 50 57 63 72 83 90 93 90 84 88 97 104 111 103 107 108 101 100 99 96 95 95 96 94 93 93 87 87 87 86
18 19 23 28 33 37 39 41 43 49 56 62 71 78 86 81 84 86 91 97 109 91 81 110 103 118 121 116 102 94 93 93 93 91 86 83 82 82
28 28 29 33 38 44 46 49 50 50 46 50 63 71 87 89 95 103 99 98 110 108 98 121 98 106 108 111 106 97 89 85 82 81 82 81 79 77
35 38 40 43 47 53 57 59 59 59 57 59 62 71 74 74 78 88 101 107 115 106 86 103 102 107 107 112 109 94 85 76 78 78 74 74 74 73
45 47 50 53 56 61 67 70 70 71 71 73 77 79 81 83 80 81 83 80 85 85 67 87 105 105 103 108 99 84 78 71 71 70 68 69 70 72
51 54 56 60 63 66 69 71 74 78 85 88 87 86 85 85 82 70 75 89 103 125 92 92 101 90 93 95 82 79 78 69 60 62 61 65 69 73
58 60 62 65 68 70 70 68 66 77 84 87 92 95 95 93 88 82 75 72 87 101 108 89 103 104 93 90 95 100 74 70 67 70 74 76 76 73
63 67 68 71 73 73 73 72 73 80 86 92 95 98 98 96 92 87 80 76 71 74 77 67 90 90 83 81 73 70 75 77 78 82 81 74 69 81
66 68 70 73 73 73 73 74 78 83 86 89 92 94 93 94 94 90 80 67 62 55 62 68 68 74 72 70 71 76 78 85 82 71 71 81 86 89
72 71 72 72 72 74 77 79 81 82 81 82 85 87 90 93 93 84 81 74 71 65 77 68 71 66 65 66 69 75 76 75 79 81 81 87 88 92
78 77 81 83 85 84 83 82 82 82 82 83 85 88 90 91 93 84 76 75 69 73 84 75 69 66 64 63 70 69 64 66 71 76 77 91 94 88
82 88 87 85 84 84 85 86 85 84 83 84 87 89 93 95 94 89 81 78 72 82 72 77 75 75 70 64 46 46 66 69 72 80 80 86 101 92
93 90 84 81 81 82 83 85 86 82 79 80 83 86 92 92 89 88 85 74 82 75 74 73 69 62 66 73 80 57 60 78 77 80 74 82 97 100
90 88 85 81 79 79 80 80 80 78 75 78 81 84 88 88 86 85 81 82 82 80 76 67 62 59 59 64 83 88 65 73 71 82 87 90 96 96
88 82 75 71 70 71 72 73 74 73 71 77 80 84 85 82 80 79 76 73 69 67 68 67 61 57 60 64 71 84 81 71 68 73 80 84 89 96
81 78 72 67 67 69 69 69 70 66 67 74 78 82 81 75 73 70 66 64 64 63 66 64 58 57 55 61 70 78 88 84 70 58 51 47 61 49
75 72 67 62 61 62 61 62 59 58 64 72 77 80 74 67 61 58 60 61 63 65 63 65 60 54 60 66 68 76 73 73 75 69 54 43 39 55
Wind_Direction_850mb
247 245 248 249 248 252 252 251 271 289 292 282 285 285 289 289 287 286 286 285 284 283 284 284 284 283 284 284 285 284 283 279 275 272 272 273 274 274
242 247 245 247 244 245 251 278 291 292 279 287 288 291 291 289 289 287 287 286 283 284 285 285 283 284 284 284 283 283 283 278 272 271 273 273 274 274
238 239 239 242 256 268 267 268 282 290 288 292 292 296 292 290 289 289 288 287 286 285 284 283 284 284 284 284 283 283 281 278 272 271 270 272 273 273
243 239 248 240 250 273 292 304 295 294 295 294 293 293 292 294 295 293 292 289 288 286 285 284 283 282 282 281 281 280 280 278 273 267 267 270 270 269
222 250 266 274 284 288 285 286 289 285 284 286 289 293 296 297 297 295 295 292 290 291 290 288 286 285 283 282 280 279 279 278 272 267 268 270 270 272
268 286 311 318 306 287 284 284 286 287 288 291 293 298 302 305 303 302 301 301 302 301 299 296 294 290 285 281 278 275 274 273 270 268 270 269 271 275
323 312 307 301 295 293 297 300 301 303 303 303 303 304 306 309 307 308 305 306 302 301 300 298 298 294 289 288 285 284 282 278 272 270 267 267 271 270
347 338 331 323 319 317 314 312 312 315 312 312 312 309 309 309 309 307 304 303 300 302 298 295 293 293 295 293 293 291 287 280 276 271 268 270 269 269
1 360 356 348 338 331 324 323 322 323 320 315 312 313 311 314 312 311 305 299 295 296 294 291 289 286 289 294 296 295 292 283 270 267 268 267 267 270
17 10 3 358 355 347 342 337 335 332 326 318 309 303 301 303 302 300 298 297 294 294 294 289 292 287 290 291 292 291 287 271 266 266 268 268 270 273
20 13 7 1 357 348 343 339 335 329 324 320 316 313 311 309 308 300 295 308 307 303 307 287 289 287 292 291 291 289 283 268 264 263 264 268 267 271
17 10 5 358 352 346 341 337 331 329 330 325 322 321 321 321 321 320 310 307 304 300 297 302 296 302 286 287 287 289 284 274 263 266 265 275 275 275
8 1 356 350 345 343 340 339 337 331 329 328 328 329 330 331 330 325 320 314 308 302 299 304 301 300 294 284 285 286 283 285 281 281 284 287 281 281
360 355 350 344 341 340 339 339 338 335 337 337 337 338 337 336 334 333 329 321 314 307 312 314 300 300 297 294 292 290 292 293 294 296 296 291 289 290
354 349 342 339 339 338 340 340 340 341 342 341 340 339 338 337 336 336 333 331 328 329 332 324 322 317 307 298 296 298 299 296 302 297 293 296 292 291
349 344 339 338 339 340 342 346 349 350 348 345 341 339 339 339 338 339 337 340 333 332 326 327 325 324 315 307 304 298 297 300 299 299 301 295 294 292
345 341 342 346 346 348 349 350 352 352 350 347 344 342 340 338 337 338 339 338 334 321 325 330 326 320 314 309 302 301 307 301 303 303 305 301 297 299
345 346 347 346 345 345 346 346 349 349 347 344 344 345 343 341 338 338 337 335 326 323 323 328 328 323 319 313 316 314 310 309 310 308 305 302 300 304
343 342 340 340 341 341 342 343 343 345 343 344 345 347 346 343 340 338 336 328 327 326 327 329 328 326 323 317 323 324 314 314 314 307 305 301 301 305
338 337 337 336 336 336 337 339 340 341 342 345 347 348 348 345 341 337 335 331 332 331 331 334 335 331 324 316 313 320 326 316 317 312 311 309 305 307
333 331 332 331 331 331 334 336 339 340 344 345 347 348 348 344 343 339 336 336 336 336 334 336 337 331 323 319 315 321 326 328 320 309 307 302 306 309
329 327 329 329 330 332 333 335 337 342 345 346 347 347 344 341 341 340 341 339 340 339 336 336 338 337 335 328 323 324 326 328 328 324 323 299 286 286
325 324 324 326 328 330 332 333 337 344 345 345 347 346 341 341 345 346 345 344 342 340 340 341 345 344 341 338 333 332 333 338 339 342 348 347 312 288